Flag for United Kingdom Weather past 2 weeks in Winchester, England, United Kingdom

Now
55 °F

Scattered showers. Scattered clouds.


Feels Like: 52 °F
Forecast: 42 / 61 °F
Wind: 15 mph from West

Location: Middle Wallop

Current Time: May 29, 2015 at 3:49:08 PM

Latest Report: May 29, 2015 at 2:50 PM


Visibility: N/A

Pressure: 29.71 "Hg

Humidity: 67%

Dew point: 45 °F

Location of WinchesterLocation

Historic Weather in Winchester — Graph

°F

Winchester temperature yesterday

Maximum temperature yesterday: 59 °F (at 1:50 PM)
Minimum temperature yesterday: 46 °F (at 11:50 PM)
Average temperature yesterday: 54 °F

Past Weeks' High & Low Weather Summary

 TemperatureHumidityPressure
High68 °F (May 23, 3:50 PM)100% (May 21, 2:50 AM)30.39 "Hg (May 21, 2:50 AM)
Low37 °F (May 20, 5:50 AM)31% (May 28, 6:50 PM)29.62 "Hg (May 18, 11:50 AM)
Average53 °F72%30.10 "Hg
* Reported May 14 2:50 PM — May 29 2:50 PM, Winchester, Weather by CustomWeather, © 2015

Note: Actual official high and low records may vary slightly from our data, if they occured in-between our weather recording intervals... More about our weather records

Advertising

Winchester weather history for previous 24 hours

 ConditionsComfort  
Time TempWeatherWind HumidityBarometerVisibility
2:50 PM
Fri, May 29
55 °FScattered showers. Scattered clouds.15 mph67%29.71 "HgN/A
1:50 PM52 °FPartly sunny.13 mph82%29.71 "HgN/A
12:50 PM50 °FBroken clouds.12 mph94%29.71 "HgN/A
11:50 AM48 °FRain. Overcast.13 mph94%29.74 "Hg4 mi
10:50 AM54 °FLight rain. Mostly cloudy.20 mph77%29.71 "HgN/A
9:50 AM52 °FLight rain. Cloudy.16 mph82%29.74 "HgN/A
8:50 AM52 °FLight rain. Partly sunny.15 mph77%29.77 "HgN/A
7:50 AM50 °FPartly sunny.10 mph82%29.80 "HgN/A
6:50 AM48 °FPartly sunny.9 mph82%29.83 "HgN/A
5:50 AM46 °FOvercast.7 mph87%29.83 "HgN/A
4:50 AM45 °FOvercast.7 mph87%29.86 "HgN/A
3:50 AM45 °FOvercast.3 mph87%29.86 "HgN/A
2:50 AM45 °FOvercast.3 mph87%29.89 "HgN/A
1:50 AM46 °FOvercast.5 mph82%29.92 "HgN/A
12:50 AM46 °FPassing clouds.2 mph82%29.92 "HgN/A
11:50 PM
Thu, May 28
46 °FClear.No wind76%29.95 "Hg10 mi
10:50 PM48 °FClear.2 mph71%29.95 "Hg10 mi
9:50 PM48 °FSunny.3 mph66%29.98 "Hg10 mi
8:50 PM52 °FSunny.9 mph54%29.98 "Hg10 mi
7:50 PM55 °FSunny.14 mph41%29.98 "Hg10 mi
6:50 PM57 °FSunny.12 mph31%29.98 "Hg10 mi
5:50 PM57 °FSunny.13 mph39%29.98 "Hg10 mi
4:50 PM59 °FSunny.14 mph39%29.98 "Hg10 mi
3:50 PM59 °FSunny.16 mph36%29.98 "Hg10 mi
Weather by CustomWeather, © 2015

See weather overviewHow to use our weather pages